CAPE
2 1 1 1 2 0 2 3 0 1 1 3 0 0 0 0 0 0 0 0 0 1 0 0 0 0 2 0 12 5 139 60 250 360 289 162 93 28 382 538 505 561 325 81 135
0 0 0 0 0 0 0 0 0 0 0 0 0 0 0 0 0 0 0 1 235 0 0 0 0 0 0 0 0 27 10 46 201 101 99 101 169 106 268 578 519 408 7 11 636
0 0 0 0 0 0 0 0 0 0 0 0 0 1 1 0 0 0 0 206 98 0 0 0 0 0 0 0 0 20 7 104 424 257 145 133 162 205 475 480 390 223 16 0 513
0 0 0 0 0 0 0 0 0 0 0 0 1 1 0 0 0 0 0 284 143 0 0 0 0 0 0 0 7 19 4 133 402 406 170 203 299 304 511 571 425 230 37 0 0
0 0 0 0 0 0 0 0 0 0 0 0 1 0 0 0 0 0 127 211 0 0 0 0 0 0 0 0 2 18 10 71 389 369 154 262 123 304 561 599 417 183 15 0 0
0 0 0 0 0 0 0 0 0 0 0 0 0 0 0 0 0 0 0 0 0 0 0 0 0 0 0 0 0 8 2 27 418 307 252 208 304 728 704 565 422 103 132 286 190
0 0 0 0 0 0 0 0 0 0 0 0 0 0 0 0 0 0 0 0 0 0 0 0 0 0 0 0 0 0 0 0 101 181 281 236 323 801 506 330 342 152 273 214 261
0 0 0 0 0 0 0 0 0 0 0 0 0 0 0 0 0 0 0 0 0 0 0 0 0 0 0 0 0 0 6 22 7 200 413 72 380 743 541 352 356 462 477 419 285
0 0 0 0 0 0 0 0 0 0 0 0 0 0 0 0 0 0 0 0 0 0 0 0 0 0 0 0 0 0 4 15 15 29 218 154 307 720 665 542 703 714 825 567 299
0 0 0 0 0 0 0 0 0 0 0 0 0 0 0 0 0 0 0 0 0 0 0 0 0 0 0 0 0 0 1 2 4 5 97 44 55 828 539 600 705 638 764 716 454
0 0 0 0 0 0 0 0 0 0 0 0 0 0 0 0 0 0 0 0 0 0 0 0 0 0 0 0 0 0 0 4 1 8 72 103 93 520 687 499 532 612 666 829 793
0 0 0 0 0 0 0 0 0 0 0 0 0 0 0 0 0 0 0 0 0 0 0 0 0 0 0 0 0 0 0 13 11 37 28 35 99 230 376 496 544 584 424 348 819
0 0 0 0 0 0 0 0 0 0 0 0 0 0 0 0 0 0 0 0 0 0 0 0 0 0 0 0 0 0 4 5 70 28 40 6 58 485 451 544 585 605 491 295 818
0 0 0 0 0 0 0 0 0 0 0 0 0 0 0 0 0 0 0 0 0 0 0 0 0 0 0 0 0 0 0 45 29 4 16 2 11 166 576 612 701 661 442 491 340
0 0 0 0 0 0 0 0 0 0 0 0 0 0 0 0 0 0 0 0 0 0 0 0 0 0 0 0 0 0 1 7 8 0 42 29 10 15 268 797 736 641 435 542 424
0 0 0 0 0 0 0 0 0 0 0 0 0 0 0 0 0 0 0 0 0 0 0 0 0 0 0 0 0 0 8 2 2 13 13 8 5 60 54 59 439 586 292 592 484
0 0 0 0 0 0 0 0 0 0 0 0 0 0 0 0 0 0 0 0 0 0 0 0 0 0 0 0 0 0 18 4 3 7 7 28 3 17 57 103 50 266 391 601 793
0 0 0 0 0 0 0 0 0 0 0 0 0 0 0 0 0 0 0 0 0 0 0 0 0 0 0 0 0 0 18 26 14 14 4 19 1 0 29 48 18 434 408 592 795
0 0 0 0 0 0 0 0 0 0 0 0 0 0 0 0 0 0 0 0 0 0 0 0 0 0 0 0 0 0 1 68 23 8 0 0 0 0 0 0 20 26 267 667 711
0 0 0 0 0 0 0 0 0 0 0 0 0 0 0 0 0 0 0 0 0 0 0 0 0 0 0 0 0 0 2 10 18 3 0 0 0 1 0 10 17 335 793 781 866
0 0 0 0 0 0 0 0 0 0 0 0 0 0 0 0 0 0 0 0 0 0 0 0 0 0 0 0 0 0 0 0 2 14 0 2 1 42 0 4 65 424 621 734 1548
0 0 0 0 0 0 0 0 0 0 0 0 0 0 0 0 0 0 0 0 0 0 0 0 0 0 0 0 0 0 0 0 5 14 31 19 18 108 65 55 313 386 454 671 1006
0 0 0 0 0 0 0 0 0 0 0 0 0 0 0 0 0 0 0 1 37 0 0 0 0 0 0 0 0 0 0 6 3 2 28 50 49 19 43 175 470 497 600 499 937
0 0 0 0 0 0 0 0 0 0 0 0 0 0 0 0 0 9 78 84 45 34 252 0 0 0 0 0 1 10 0 9 8 0 0 1 7 36 57 188 323 458 531 944 1431
0 0 0 0 0 0 0 0 0 2 0 0 0 0 0 0 0 66 50 35 16 66 0 0 0 0 0 0 2 6 0 16 31 1 37 125 57 80 64 130 509 461 719 758 561
0 0 0 0 0 0 0 0 0 0 0 24 6 1 0 0 0 0 11 16 25 65 18 23 0 0 0 0 0 0 0 18 3 12 0 16 68 50 80 72 174 382 617 681 690
2 0 0 0 0 1 4 0 0 0 4 28 152 125 0 0 80 20 7 21 25 58 41 24 28 58 0 0 0 0 2 1 5 18 14 12 14 99 46 86 0 173 589 723 748
CIN
0 0 0 0 0 0 0 0 0 0 0 0 0 0 0 0 0 0 0 0 0 -75 0 0 0 0 -11 0 -190 -92 -97 -35 -123 -190 -174 -323 -156 -137 -61 -42 -30 -9 -26 -216 -235
0 0 0 0 0 0 0 0 0 0 0 0 0 0 0 0 0 0 0 -99 -642 0 0 0 0 0 0 0 0 -47 -8 -21 -90 -77 -30 -200 -214 -72 -122 -64 -29 -20 -142 -223 -144
0 0 0 0 0 0 0 0 0 0 0 0 0 0 0 0 0 0 0 -585 -727 0 0 0 0 0 0 0 0 -22 -11 -131 -148 -260 -219 -276 -67 -291 -55 -62 -76 -56 -174 0 -108
0 0 0 0 0 0 0 0 0 0 0 0 0 0 0 0 0 0 0 -680 -693 0 0 0 0 0 0 0 -9 -11 -35 -174 -221 -274 -210 -252 -323 -287 -241 -182 -66 -77 -162 0 0
0 0 0 0 0 0 0 0 0 0 0 0 0 0 0 0 0 0 -772 -401 0 0 0 0 0 0 0 0 -4 -10 -6 -150 -253 -287 -262 -311 -110 -259 -189 -49 -40 -69 -123 0 0
0 0 0 0 0 0 0 0 0 0 0 0 0 0 0 0 0 0 0 0 0 0 0 0 0 0 0 0 0 -9 -3 -94 -229 -217 -244 -259 -101 -194 -176 -82 -133 -144 -75 -44 -22
0 0 0 0 0 0 0 0 0 0 0 0 0 0 0 0 0 0 0 0 0 0 0 0 0 0 0 0 0 0 0 0 -241 -233 -264 -202 -184 -365 -164 -328 -384 -375 -133 -130 -78
0 0 0 0 0 0 0 0 0 0 0 0 0 0 0 0 0 0 0 0 0 0 0 0 0 0 0 0 0 0 -18 -12 -4 -230 -177 -142 -149 -155 -77 -65 -271 -154 -184 -162 -187
0 0 0 0 0 0 0 0 0 0 0 0 0 0 0 0 0 0 0 0 0 0 0 0 0 0 0 0 0 0 -12 -24 -5 -26 -136 -214 -323 -431 -130 -139 -207 -184 -164 -73 -147
0 0 0 0 0 0 0 0 0 0 0 0 0 0 0 0 0 0 0 0 0 0 0 0 0 0 0 0 0 0 -88 -10 -9 -7 -89 -90 -220 -450 -204 -308 -155 -126 -171 -108 -120
0 0 0 0 0 0 0 0 0 0 0 0 0 0 0 0 0 0 0 0 0 0 0 0 0 0 0 0 0 0 0 -8 -16 -27 -49 -26 -57 -336 -393 -153 -100 -39 -189 -75 -66
0 0 0 0 0 0 0 0 0 0 0 0 0 0 0 0 0 0 0 0 0 0 0 0 0 0 0 0 0 0 0 -12 -27 -17 -24 -34 -87 -315 -258 -366 -120 -189 -116 -107 -80
0 0 0 0 0 0 0 0 0 0 0 0 0 0 0 0 0 0 0 0 0 0 0 0 0 0 0 0 0 0 -50 -13 -23 -29 -15 -7 -67 -341 -391 -237 -140 -52 -87 -76 -76
0 0 0 0 0 0 0 0 0 0 0 0 0 0 0 0 0 0 0 0 0 0 0 0 0 0 0 0 0 0 0 -40 -25 -16 -6 -1 -12 -78 -250 -219 -117 -80 -121 -50 -131
0 0 0 0 0 0 0 0 0 0 0 0 0 0 0 0 0 0 0 0 0 0 0 0 0 0 0 0 0 0 -6 -18 -36 -1 -6 -6 -17 -53 -121 -300 -147 -121 -150 -92 -103
0 0 0 0 0 0 0 0 0 0 0 0 0 0 0 0 0 0 0 0 0 0 0 0 0 0 0 0 0 0 -7 -12 -14 -13 -1 -5 -13 -39 -44 -95 -201 -178 -440 -101 -30
0 0 0 0 0 0 0 0 0 0 0 0 0 0 0 0 0 0 0 0 0 0 0 0 0 0 0 0 0 0 -14 -17 -19 -15 -21 -6 -5 -13 -41 -13 -111 -379 -263 -129 -100
0 0 0 0 0 0 0 0 0 0 0 0 0 0 0 0 0 0 0 0 0 0 0 0 0 0 0 0 0 0 -48 -41 -24 -13 -2 -10 -1 0 -37 -74 -27 -400 -489 -109 -78
0 0 0 0 0 0 0 0 0 0 0 0 0 0 0 0 0 0 0 0 0 0 0 0 0 0 0 0 0 0 -16 -8 -17 -4 0 0 0 0 0 0 -87 -37 -367 -29 -63
0 0 0 0 0 0 0 0 0 0 0 0 0 0 0 0 0 0 0 0 0 0 0 0 0 0 0 0 0 0 -4 -3 -5 -6 0 0 0 -48 -12 -58 -41 -183 -86 -66 -119
0 0 0 0 0 0 0 0 0 0 0 0 0 0 0 0 0 0 0 0 0 0 0 0 0 0 0 0 0 0 0 0 -1 -10 -3 -34 -104 -117 0 -26 -163 -80 -32 -99 -133
0 0 0 0 0 0 0 0 0 0 0 0 0 0 0 0 0 0 0 0 0 0 0 0 0 0 0 0 0 0 -1 0 -18 -20 -31 -37 -75 -157 -215 -144 -184 -70 -101 -133 -99
0 0 0 0 0 0 0 0 0 0 0 0 0 0 0 0 0 0 0 -9 -66 0 0 0 0 0 0 0 0 0 0 -22 -16 -38 -6 -45 -67 -34 -104 -92 -77 -406 -342 -428 -247
0 0 0 0 0 0 0 0 0 0 0 0 0 0 0 0 0 -37 -140 -91 -138 -77 -171 0 0 0 0 0 -23 -9 0 -23 -18 -9 0 -13 -114 -145 -104 -160 -74 -109 -63 -233 -69
0 0 0 0 0 0 0 0 0 -40 0 0 0 0 0 0 0 -110 -186 -199 -148 -160 0 0 0 0 0 0 -78 -40 0 -15 -21 -12 -38 -44 -46 -67 -38 -111 -179 -82 -308 -138 -61
0 0 0 0 0 0 0 0 0 0 0 -121 -164 -2 0 0 0 -1 -200 -215 -166 -149 -34 -86 0 0 0 0 0 0 0 -14 -6 -26 -1 -16 -34 -48 -22 -31 -196 -119 -198 -28 -68
0 0 0 0 0 -1 -3 0 0 0 -37 -113 -65 -30 0 0 -123 -70 -28 -121 -185 -156 -105 -140 -86 -82 0 0 0 0 -5 -6 -4 -20 -50 -155 -96 -50 -44 -57 0 -110 -25 -89 -57
Wind_Speed
nan nan nan nan nan nan nan nan nan nan nan nan nan nan nan nan nan nan nan nan nan nan nan nan nan nan nan nan nan nan 9 nan 27 30 23 20 nan nan 12 19 14 23 20 nan 19
nan nan nan nan nan nan nan nan nan nan nan nan nan nan nan nan nan nan nan nan 7 nan nan nan nan nan nan nan nan nan nan nan 24 25 nan 24 29 24 21 18 15 17 nan nan 21
nan nan nan nan nan nan nan nan nan nan nan nan nan nan nan nan nan nan nan 5 nan nan nan nan nan nan nan nan nan nan nan 22 18 22 25 26 26 23 19 7 9 23 nan nan 24
nan nan nan nan nan nan nan nan nan nan nan nan nan nan nan nan nan nan nan 9 10 nan nan nan nan nan nan nan nan nan nan 20 23 27 25 30 29 21 17 27 21 24 nan nan nan
nan nan nan nan nan nan nan nan nan nan nan nan nan nan nan nan nan nan 9 12 nan nan nan nan nan nan nan nan nan nan nan nan 24 27 28 34 22 16 23 35 26 21 nan nan nan
nan nan nan nan nan nan nan nan nan nan nan nan nan nan nan nan nan nan nan nan nan nan nan nan nan nan nan nan nan nan nan nan 17 23 25 30 23 25 24 42 28 21 16 22 22
nan nan nan nan nan nan nan nan nan nan nan nan nan nan nan nan nan nan nan nan nan nan nan nan nan nan nan nan nan nan nan nan 24 24 20 34 17 29 36 37 31 22 26 28 28
nan nan nan nan nan nan nan nan nan nan nan nan nan nan nan nan nan nan nan nan nan nan nan nan nan nan nan nan nan nan nan nan nan 23 12 nan 25 37 33 32 34 35 34 29 29
nan nan nan nan nan nan nan nan nan nan nan nan nan nan nan nan nan nan nan nan nan nan nan nan nan nan nan nan nan nan nan nan nan nan 19 15 29 34 37 36 38 33 32 25 20
nan nan nan nan nan nan nan nan nan nan nan nan nan nan nan nan nan nan nan nan nan nan nan nan nan nan nan nan nan nan nan nan nan nan nan nan nan 38 40 40 41 34 27 21 21
nan nan nan nan nan nan nan nan nan nan nan nan nan nan nan nan nan nan nan nan nan nan nan nan nan nan nan nan nan nan nan nan nan nan nan 11 nan 37 37 37 29 26 20 13 17
nan nan nan nan nan nan nan nan nan nan nan nan nan nan nan nan nan nan nan nan nan nan nan nan nan nan nan nan nan nan nan nan nan nan nan nan nan 33 32 36 38 35 19 17 5
nan nan nan nan nan nan nan nan nan nan nan nan nan nan nan nan nan nan nan nan nan nan nan nan nan nan nan nan nan nan nan nan nan nan nan nan nan 17 18 18 25 26 21 11 14
nan nan nan nan nan nan nan nan nan nan nan nan nan nan nan nan nan nan nan nan nan nan nan nan nan nan nan nan nan nan nan nan nan nan nan nan nan 10 14 22 21 23 25 17 10
nan nan nan nan nan nan nan nan nan nan nan nan nan nan nan nan nan nan nan nan nan nan nan nan nan nan nan nan nan nan nan nan nan nan nan nan nan nan 17 22 22 20 23 21 20
nan nan nan nan nan nan nan nan nan nan nan nan nan nan nan nan nan nan nan nan nan nan nan nan nan nan nan nan nan nan nan nan nan nan nan nan nan nan nan nan 17 14 18 15 13
nan nan nan nan nan nan nan nan nan nan nan nan nan nan nan nan nan nan nan nan nan nan nan nan nan nan nan nan nan nan nan nan nan nan nan nan nan nan nan 7 nan 20 19 15 10
nan nan nan nan nan nan nan nan nan nan nan nan nan nan nan nan nan nan nan nan nan nan nan nan nan nan nan nan nan nan nan nan nan nan nan nan nan nan nan nan nan 15 17 22 18
nan nan nan nan nan nan nan nan nan nan nan nan nan nan nan nan nan nan nan nan nan nan nan nan nan nan nan nan nan nan nan nan nan nan nan nan nan nan nan nan nan nan 18 25 23
nan nan nan nan nan nan nan nan nan nan nan nan nan nan nan nan nan nan nan nan nan nan nan nan nan nan nan nan nan nan nan nan nan nan nan nan nan nan nan nan nan 19 18 22 25
nan nan nan nan nan nan nan nan nan nan nan nan nan nan nan nan nan nan nan nan nan nan nan nan nan nan nan nan nan nan nan nan nan nan nan nan nan nan nan nan nan 30 16 28 17
nan nan nan nan nan nan nan nan nan nan nan nan nan nan nan nan nan nan nan nan nan nan nan nan nan nan nan nan nan nan nan nan nan nan nan nan nan 21 nan nan 30 35 36 41 37
nan nan nan nan nan nan nan nan nan nan nan nan nan nan nan nan nan nan nan nan nan nan nan nan nan nan nan nan nan nan nan nan nan nan nan nan nan nan nan 22 33 36 33 51 43
nan nan nan nan nan nan nan nan nan nan nan nan nan nan nan nan nan nan nan nan nan nan 18 nan nan nan nan nan nan nan nan nan nan nan nan nan nan nan nan 17 22 29 41 34 22
nan nan nan nan nan nan nan nan nan nan nan nan nan nan nan nan nan nan nan nan nan nan nan nan nan nan nan nan nan nan nan nan nan nan nan 20 nan nan nan 19 24 27 27 32 22
nan nan nan nan nan nan nan nan nan nan nan nan nan nan nan nan nan nan nan nan nan nan nan nan nan nan nan nan nan nan nan nan nan nan nan nan nan nan nan nan 22 25 26 28 31
nan nan nan nan nan nan nan nan nan nan nan nan 33 32 nan nan nan nan nan nan nan nan nan nan nan nan nan nan nan nan nan nan nan nan nan nan nan nan nan nan nan 12 20 30 33
Wind_Direction
nan nan nan nan nan nan nan nan nan nan nan nan nan nan nan nan nan nan nan nan nan nan nan nan nan nan nan nan nan nan 37 nan 343 356 18 44 nan nan 1 14 10 1 341 nan 344
nan nan nan nan nan nan nan nan nan nan nan nan nan nan nan nan nan nan nan nan 155 nan nan nan nan nan nan nan nan nan nan nan 17 344 nan 18 28 6 6 334 327 321 nan nan 342
nan nan nan nan nan nan nan nan nan nan nan nan nan nan nan nan nan nan nan 109 nan nan nan nan nan nan nan nan nan nan nan 9 356 5 0 20 17 349 333 7 353 341 nan nan 356
nan nan nan nan nan nan nan nan nan nan nan nan nan nan nan nan nan nan nan 190 212 nan nan nan nan nan nan nan nan nan nan 358 340 350 6 11 2 347 12 6 339 360 nan nan nan
nan nan nan nan nan nan nan nan nan nan nan nan nan nan nan nan nan nan 204 190 nan nan nan nan nan nan nan nan nan nan nan nan 338 337 351 345 341 3 353 339 326 6 nan nan nan
nan nan nan nan nan nan nan nan nan nan nan nan nan nan nan nan nan nan nan nan nan nan nan nan nan nan nan nan nan nan nan nan 330 332 334 325 337 356 351 334 338 5 37 21 29
nan nan nan nan nan nan nan nan nan nan nan nan nan nan nan nan nan nan nan nan nan nan nan nan nan nan nan nan nan nan nan nan 321 333 321 315 335 356 2 352 0 4 37 31 26
nan nan nan nan nan nan nan nan nan nan nan nan nan nan nan nan nan nan nan nan nan nan nan nan nan nan nan nan nan nan nan nan nan 313 302 nan 352 360 1 349 10 19 48 26 28
nan nan nan nan nan nan nan nan nan nan nan nan nan nan nan nan nan nan nan nan nan nan nan nan nan nan nan nan nan nan nan nan nan nan 326 339 327 7 11 2 10 12 22 17 16
nan nan nan nan nan nan nan nan nan nan nan nan nan nan nan nan nan nan nan nan nan nan nan nan nan nan nan nan nan nan nan nan nan nan nan nan nan 343 10 10 15 11 5 16 12
nan nan nan nan nan nan nan nan nan nan nan nan nan nan nan nan nan nan nan nan nan nan nan nan nan nan nan nan nan nan nan nan nan nan nan 9 nan 336 356 13 14 2 0 0 26
nan nan nan nan nan nan nan nan nan nan nan nan nan nan nan nan nan nan nan nan nan nan nan nan nan nan nan nan nan nan nan nan nan nan nan nan nan 327 349 4 2 351 343 350 27
nan nan nan nan nan nan nan nan nan nan nan nan nan nan nan nan nan nan nan nan nan nan nan nan nan nan nan nan nan nan nan nan nan nan nan nan nan 300 13 357 350 329 354 349 349
nan nan nan nan nan nan nan nan nan nan nan nan nan nan nan nan nan nan nan nan nan nan nan nan nan nan nan nan nan nan nan nan nan nan nan nan nan 281 325 332 351 333 358 21 5
nan nan nan nan nan nan nan nan nan nan nan nan nan nan nan nan nan nan nan nan nan nan nan nan nan nan nan nan nan nan nan nan nan nan nan nan nan nan 295 324 349 343 2 40 31
nan nan nan nan nan nan nan nan nan nan nan nan nan nan nan nan nan nan nan nan nan nan nan nan nan nan nan nan nan nan nan nan nan nan nan nan nan nan nan nan 294 339 3 37 60
nan nan nan nan nan nan nan nan nan nan nan nan nan nan nan nan nan nan nan nan nan nan nan nan nan nan nan nan nan nan nan nan nan nan nan nan nan nan nan 251 nan 335 360 12 26
nan nan nan nan nan nan nan nan nan nan nan nan nan nan nan nan nan nan nan nan nan nan nan nan nan nan nan nan nan nan nan nan nan nan nan nan nan nan nan nan nan 332 2 355 9
nan nan nan nan nan nan nan nan nan nan nan nan nan nan nan nan nan nan nan nan nan nan nan nan nan nan nan nan nan nan nan nan nan nan nan nan nan nan nan nan nan nan 360 357 352
nan nan nan nan nan nan nan nan nan nan nan nan nan nan nan nan nan nan nan nan nan nan nan nan nan nan nan nan nan nan nan nan nan nan nan nan nan nan nan nan nan 275 325 330 358
nan nan nan nan nan nan nan nan nan nan nan nan nan nan nan nan nan nan nan nan nan nan nan nan nan nan nan nan nan nan nan nan nan nan nan nan nan nan nan nan nan 312 300 274 359
nan nan nan nan nan nan nan nan nan nan nan nan nan nan nan nan nan nan nan nan nan nan nan nan nan nan nan nan nan nan nan nan nan nan nan nan nan 311 nan nan 296 309 315 294 1
nan nan nan nan nan nan nan nan nan nan nan nan nan nan nan nan nan nan nan nan nan nan nan nan nan nan nan nan nan nan nan nan nan nan nan nan nan nan nan 290 321 320 315 330 335
nan nan nan nan nan nan nan nan nan nan nan nan nan nan nan nan nan nan nan nan nan nan 202 nan nan nan nan nan nan nan nan nan nan nan nan nan nan nan nan 322 317 327 328 306 289
nan nan nan nan nan nan nan nan nan nan nan nan nan nan nan nan nan nan nan nan nan nan nan nan nan nan nan nan nan nan nan nan nan nan nan 275 nan nan nan 320 294 310 303 293 291
nan nan nan nan nan nan nan nan nan nan nan nan nan nan nan nan nan nan nan nan nan nan nan nan nan nan nan nan nan nan nan nan nan nan nan nan nan nan nan nan 285 303 330 326 327
nan nan nan nan nan nan nan nan nan nan nan nan 215 215 nan nan nan nan nan nan nan nan nan nan nan nan nan nan nan nan nan nan nan nan nan nan nan nan nan nan nan 303 23 340 331